This is the latest recevied weather packets stored in our database for station/object KC3DGM. If no packets are shown the sender has not sent any weather packets the latest 10 day(s).
| Time | Temp. | Humidity | Pressure | Rain* | Wind** | Luminosity | Snow |
|---|---|---|---|---|---|---|---|
| 1778053745 | 10° C | 99% | 978 hPa | 3.05 mm | - | 0 W/m² | - |
| 1778053442 | 10° C | 99% | 978 hPa | 3.05 mm | - | 0 W/m² | - |
| 1778053140 | 10° C | 99% | 977.7 hPa | 3.05 mm | - | 0 W/m² | - |
| 1778052837 | 10° C | 99% | 978.2 hPa | 3.05 mm | - | 0 W/m² | - |
| 1778052534 | 10° C | 99% | 977.9 hPa | 4.83 mm | - | 0 W/m² | - |
| 1778052232 | 10° C | 99% | 978.2 hPa | 4.83 mm | - | 0 W/m² | - |
| 1778051929 | 10° C | 99% | 978 hPa | 1.78 mm | - | 0 W/m² | - |
| 1778051627 | 10° C | 99% | 978 hPa | 1.27 mm | - | 0 W/m² | - |
| 1778051324 | 10° C | 99% | 978.2 hPa | 1.27 mm | - | 0 W/m² | - |
| 1778051021 | 10° C | 99% | 977.8 hPa | 0 mm | - | 0 W/m² | - |
| 1778050718 | 10° C | 99% | 978.2 hPa | 3.05 mm | - | 0 W/m² | - |
| 1778050416 | 10° C | 99% | 978 hPa | 4.83 mm | - | 0 W/m² | - |
| 1778050112 | 10° C | 99% | 978.1 hPa | 1.78 mm | - | 0 W/m² | - |
| 1778049807 | 10.56° C | 99% | 978.4 hPa | 1.27 mm | - | 0 W/m² | - |
| 1778049505 | 10.56° C | 99% | 978.4 hPa | 1.27 mm | - | 0 W/m² | - |
| 1778049202 | 10.56° C | 99% | 978.5 hPa | 1.78 mm | - | 0 W/m² | - |
| 1778048901 | 10.56° C | 99% | 978.3 hPa | 1.78 mm | - | 0 W/m² | - |
| 1778048598 | 10.56° C | 99% | 978.5 hPa | 0 mm | - | 0 W/m² | - |
| 1778048294 | 10.56° C | 99% | 978.6 hPa | 1.27 mm | - | 0 W/m² | - |
| 1778047991 | 10.56° C | 99% | 978.6 hPa | 1.27 mm | - | 0 W/m² | - |
| 1778047689 | 10.56° C | 99% | 978.5 hPa | 0 mm | - | 0 W/m² | - |
| 1778047387 | 10.56° C | 99% | 978.8 hPa | 1.78 mm | - | 0 W/m² | - |
| 1778047083 | 10.56° C | 99% | 978.8 hPa | 1.78 mm | - | 0 W/m² | - |
| 1778046780 | 10.56° C | 99% | 978.8 hPa | 0 mm | - | 0 W/m² | - |
| 1778046477 | 10.56° C | 99% | 979 hPa | 0 mm | - | 0 W/m² | - |
* Rain latest hour (hover to see other rain measurements)
** Current wind speed in m/s (hover to see current wind gust speed)